Regional Weather Roundup
Issued by NWS

Home | Current Version | Previous Version | Text Only | Print | Product List | Glossary On
Versions: 1 2 3 4 5 6 7 8 9 10 11 12 13 14 15 16 17 18 19 20 21 22 23 24 25 26 27 28 29 30 31 32 33 34 35 36 37 38 39 40 41 42 43 44 45 46 47 48 49 50
000
ASUS44 KMEG 221210
RWRTN
TENNESSEE HOURLY STATE WEATHER ROUNDUP
NATIONAL WEATHER SERVICE MEMPHIS TN
700 AM CDT FRI AUG 22 2014

TNZ002-004-019-021-049-052-054-088>092-221300-
WEST TENNESSEE

CITY           SKY/WX    TMP DP  RH WIND       PRES   REMARKS
MEMPHIS INTL   PTCLDY    77  71  82 SW3       30.08R
NWS MEMPHIS      N/A     77 N/A N/A MISG        N/A
JACKSON        CLEAR     75  72  90 SW7       30.09R
DYERSBURG      CLEAR     75  64  69 CALM      30.07R
UNION CITY     CLEAR     73  73 100 S7        30.05R
PARIS          CLEAR     72  70  94 SW5       30.08R
HUNTINGDON     CLEAR     74  72  93 SW3       30.08R
LEXINGTON      CLEAR     72  72 100 CALM      30.09R
SAVANNAH       CLEAR     72  72 100 CALM      30.10R
$$

TNZ008-025-027-028-033-062-065-066-221300-
NORTH MIDDLE TENNESSEE

CITY           SKY/WX    TMP DP  RH WIND       PRES   REMARKS
NASHVILLE      CLOUDY    75  73  93 CALM      30.09R
DICKSON        CLEAR     73  72  94 SW7       30.10R
CLARKSVILLE    CLEAR     76  72  87 SW6       30.07R
LEBANON        CLEAR     73  71  93 SW5       30.08R
SMYRNA         PTCLDY    73  72  97 CALM      30.10R
MURFREESBORO   CLEAR     75  71  87 S3        30.10R
COOKEVILLE     CLEAR     72  70  94 CALM      30.12R
LIVINGSTON     PTSUNNY   72  70  93 SW5       30.12
GALLATIN       CLEAR     73  73 100 CALM      30.09R
CROSSVILLE     PTSUNNY   71  67  87 CALM      30.17R
$$

TNZ061-075-076-078-094-096-097-221300-
SOUTH MIDDLE TENNESSEE

CITY           SKY/WX    TMP DP  RH WIND       PRES   REMARKS
LEWISBURG      MOCLDY    70  68  93 CALM      30.11R
FAYETTEVILLE   CLEAR     72  70  94 CALM      30.13R
TULLAHOMA      PTCLDY    70  66  88 CALM      30.15R
WINCHESTER     CLEAR     70  70 100 CALM      30.14R
MCMINNVILLE    CLEAR     72  72 100 CALM      30.13R
COLUMBIA       CLEAR     75  75 100 CALM      30.10R
SHELBYVILLE    PTCLDY    72  72 100 SE3       30.13R
$$

TNZ017-018-042-046-047-221300-
NORTHEAST TENNESSEE

CITY           SKY/WX    TMP DP  RH WIND       PRES   REMARKS
TRI CITIES     CLOUDY    70  68  93 CALM      30.14S FOG
ELIZABETHTON   MOSUNNY   68  68 100 CALM      30.15S
$$

TNZ012-013-036-069-073-074-221300-
CENTRAL EAST TENNESSEE

CITY           SKY/WX    TMP DP  RH WIND       PRES   REMARKS
KNOXVILLE      PTSUNNY   73  70  90 CALM      30.10R
OAK RIDGE      MOSUNNY   74  71  91 CALM      30.12R
GATLINBURG     SUNNY     68  66  94 CALM      30.12R
MORRISTOWN     SUNNY     72  72 100 CALM      30.14R
$$

TNZ083-085-099-221300-
SOUTHEAST TENNESSEE

CITY           SKY/WX    TMP DP  RH WIND       PRES   REMARKS
CHATTANOOGA    MOCLDY    75  71  87 CALM      30.12R
$$

SKY/WX REPORTED AS FAIR MEANS FEW OR NO CLOUDS BELOW
12 THOUSAND FEET.



USA.gov is the U.S. government's official web portal to all federal, state and local government web resources and services.